This is the latest recevied weather packets stored in our database for station/object GW7287. If no packets are shown the sender has not sent any weather packets the latest 10 day(s).
| Time | Temp. | Humidity | Pressure | Rain* | Wind** | Luminosity | Snow |
|---|---|---|---|---|---|---|---|
| 1787542187 | 19.44° C | 43% | 928.2 hPa | - | - | - | - |
| 1787537977 | 20.56° C | 37% | 928.2 hPa | - | - | - | - |
| 1787537833 | 20.56° C | 37% | 928.2 hPa | - | - | - | - |
| 1787532839 | 21.67° C | 34% | 928.4 hPa | - | - | - | - |
| 1787532174 | 21.67° C | 34% | 928.4 hPa | - | - | - | - |
| 1787528577 | 23.33° C | 31% | 928.6 hPa | - | - | - | - |
| 1787526864 | 23.33° C | 30% | 928.4 hPa | - | - | - | - |
| 1787526711 | 23.33° C | 30% | 928.4 hPa | - | - | - | - |
| 1787525125 | 23.33° C | 30% | 928.4 hPa | - | - | - | - |
| 1787523270 | 23.89° C | 27% | 928.6 hPa | - | - | - | - |
| 1787523102 | 23.89° C | 27% | 928.6 hPa | - | - | - | - |
| 1787521408 | 23.89° C | 27% | 928.6 hPa | - | - | - | - |
| 1787519703 | 26.11° C | 23% | 928.3 hPa | - | - | - | - |
| 1787519542 | 26.11° C | 23% | 928.3 hPa | - | - | - | - |
| 1787517949 | 26.11° C | 23% | 928.3 hPa | - | - | - | - |
| 1787516054 | 28.89° C | 19% | 927.9 hPa | - | - | - | - |
| 1787515894 | 28.89° C | 19% | 927.9 hPa | - | - | - | - |
| 1787514211 | 28.89° C | 19% | 927.9 hPa | - | - | - | - |
| 1787512667 | 29.44° C | 18% | 927.9 hPa | - | - | - | - |
| 1787512537 | 29.44° C | 18% | 927.9 hPa | - | - | - | - |
| 1787511299 | 29.44° C | 18% | 927.9 hPa | - | - | - | - |
| 1787509161 | 31.11° C | 15% | 928.2 hPa | - | - | - | - |
| 1787508934 | 31.11° C | 15% | 928.2 hPa | - | - | - | - |
| 1787506971 | 31.11° C | 15% | 928.2 hPa | - | - | - | - |
| 1787505280 | 32.22° C | 15% | 928.5 hPa | - | - | - | - |
* Rain since midnight (hover to see other rain measurements)
** Current wind speed in m/s (hover to see current wind gust speed)